Location: Ermatingen
(47.6706°N, 9.0857°E)
Time: 05:38:39
(UTC+00:00)

Cosmos 1174 - Pass Details

Date: 18 September 2020
Orbit: 362 x 1155 km, 66.1° (Epoch: 29 October)

Event Time Altitude Azimuth Distance (km) Brightness Sun altitude
Rises 19:22:50 0° 206° (SSW) 2,933 7.5 -19.3°
Reaches altitude 10° 19:24:54 10° 204° (SSW) 2,139 6.8 -19.7°
Maximum altitude 19:29:48 72° 121° (ESE) 859 4.5 -20.4°
Drops below altitude 10° 19:36:03 10° 38° (NE) 2,696 7.2 -21.3°
Sets 19:38:54 0° 37° (NE) 3,758 8.0 -21.8°
